Portada
METAR-TAF:

METAR-TAF

Aeroports :

Laconia Municipal Airport

Laconia, Nova Hampshire, Estats Units d'Amèrica

latitud: 43-34N, longitud: 071-25W, altitud: 166 m

Observació

L'informe es va fer fa 21 minuts, a les 23:56 UTC
Vent calma
Temperatura 5°C
Humitat 93%
Pressió 1009 hPa
Visibilitat: 16.1 km
Cel cobert a una alçada de 5000 ft
pluja

METAR: KLCI 152356Z AUTO 00000KT 10SM -RA OVC050 05/04 A2980 RMK AO2 SLP096 P0003 60010 T00500044 10111 20044 58001

Hora: 20:17 (00:17 UTC)


TAF: manca

Observacions i pronòstics meteorològics de més de 4000 aeroports (METAR i TAF).

Les estacions disponibles són els punts grocs i vermells al mapa.

Posi el ratolí al punt desitjat per veure el nom de l'estació.

Feu clic per veure les observacions i els pronòstics meteorològics.

Per canviar el mapa: feu clic els botons verds amb una creu de color negre per apropar; al botó verd amb un guió per allunyar la imatge; o en les fletxes verdes per a mapes adjacents.


METAR-TAF: